Regional Weather Roundup
Issued by NWS Mt. Holly, NJ

Home | Current Version | Previous Version | Text Only | Print | Product List | Glossary On
Versions: 1 2 3 4 5 6 7 8 9 10 11 12 13 14 15 16 17 18 19 20 21 22 23 24 25 26 27 28 29 30 31 32 33 34 35 36 37 38 39 40 41 42 43 44 45 46 47 48 49 50
000
ASUS41 KPHI 092312
RWRPHI

REGIONAL WEATHER ROUNDUP
NATIONAL WEATHER SERVICE MOUNT HOLLY NJ
600 PM EST TUE FEB 09 2016

NOTE:  "FAIR" INDICATES FEW OR NO CLOUDS BELOW 12,000 FEET WITH NO
SIGNIFICANT WEATHER AND/OR OBSTRUCTIONS TO VISIBILITY.

 * = STATION DOES NOT REPORT PRECIPITATION (E.G. RAIN, SNOW, ETC.)
        OR FOG.

NJZ015>026-100000-
SOUTHERN NEW JERSEY

CITY           SKY/WX    TMP DP  RH WIND       PRES   REMARKS
POMONA         CLOUDY    35  28  75 NE6       29.59R WCI  30
WILDWOOD*      CLOUDY    37  34  87 NE8       29.59R WCI  31
MILLVILLE      CLOUDY    37  33  85 E7        29.59R WCI  32
WRIGHTSTOWN    MOCLDY    32  32  99 NE6       29.57R WCI  27
MOUNT HOLLY    LGT SNOW  33  30  88 CALM      29.61R FOG
TRENTON        LGT SNOW  32  28  85 NE5       29.59R FOG     WCI  27

$$
NJZ001>014-100000-
NORTHERN NEW JERSEY

CITY           SKY/WX    TMP DP  RH WIND       PRES   REMARKS
SUSSEX         MOCLDY    32  23  69 CALM      29.56R
ANDOVER*         N/A     31  24  75 CALM      29.57R
MORRISTOWN     CLOUDY    32  28  86 SW5       29.60R WCI  27
NEWARK         CLOUDY    34  26  72 VRB5      29.60R WCI  30
TETERBORO      PTCLDY    33  23  66 S3        29.59R
CALDWELL       CLOUDY    33  24  69 CALM      29.60R
SOMERVILLE     CLOUDY    33  27  78 CALM      29.59R
ALLAIRE*       CLOUDY    32  21  64 N3        29.60R
TOMS RIVER*    CLOUDY    34  27  75 E5        29.60R WCI  30

$$
PAZ043-044-047-054-055-060>062-066>071-100000-
EASTERN PENNSYLVANIA

CITY           SKY/WX    TMP DP  RH WIND       PRES   REMARKS
PHILADELPHIA   LGT SNOW  34  31  88 NE5       29.61R FOG     WCI  30
NORTH PHILA    LGT SNOW  34  31  88 NE3       29.62R VSB 1
BLUE BELL*       N/A     32  32 100 CALM      29.59R VSB 1
DOYLESTOWN     LGT SNOW  30  29  96 CALM      29.58R FOG
QUAKERTOWN*    CLOUDY    32  28  86 CALM      29.58R
PERKASIE*      LGT SNOW  30  30 100 CALM      29.58R
POTTSTOWN      SNOW      31  31 100 CALM      29.60R VSB 1/2
LANCASTER      LGT SNOW  30  29  96 E5        29.59R FOG     WCI  25
COATESVILLE    LGT SNOW  32  32 100 CALM      29.58R VSB 1
READING        LGT SNOW  32  29  88 CALM      29.59R FOG
ALLENTOWN      LGT SNOW  32  28  86 E3        29.59R FOG
MOUNT POCONO   CLOUDY    28  25  88 CALM      29.49R
HAZLETON       LGT SNOW  30  28  93 CALM      29.54R VSB 1
WILKES BARRE   LGT SNOW  32  30  92 SW3       29.53R FOG

$$
DEZALL-MDZ008-012-015-019-020-100000-
DELAWARE AND EASTERN MARYLAND

CITY           SKY/WX    TMP DP  RH WIND       PRES   REMARKS
WILMINGTON     LGT SNOW  32  31  96 NW5       29.61R VSB 3/4 WCI  27
DOVER          LGT RAIN  37  37 100 S8        29.58R WCI  31
GEORGETOWN     CLOUDY    37  35  92 CALM      29.60R
EASTON         PTCLDY    36  36 100 NW5       29.64R WCI  32
ABERDEEN       LGT RAIN  34  32  93 CALM      29.62R FOG
PATUXENT       MOCLDY    35  32  88 W6        29.62R WCI  30
OCEAN CITY     MOCLDY    36  34  92 NW5       29.59R WCI  32
WALLOPS ISLAND CLOUDY    39  35  86 W6        29.61R WCI  35
CAMBRIDGE      PTCLDY    36  32  87 NW6       29.60R WCI  31
SALISBURY      CLOUDY    38  33  82 NW10G18   29.60R WCI  31

$$
PAZ001-021-NYZ056-072-MDZ011-DCZ001-100000-
OTHER NEARBY LOCATIONS

CITY           SKY/WX    TMP DP  RH WIND       PRES   REMARKS
HARRISBURG     LGT SNOW  32  30  92 CALM      29.59R VSB 3/4
STATE COLLEGE  LGT SNOW  30  27  86 W9        29.54R FOG     WCI  22
WILLIAMSPORT   LGT SNOW  37  30  75 E3        29.56R
BINGHAMTON     CLOUDY    32  26  78 S3        29.48R
NEW YORK CITY  PTCLDY    33  23  66 NE5       29.61R WCI  29
BALTIMORE      MOCLDY    34  27  75 W12       29.61R WCI  25
WASHINGTON DC  MOCLDY    36  27  69 N13       29.63R WCI  27

$$



USA.gov is the U.S. government's official web portal to all federal, state and local government web resources and services.